User: anonymous   Login
Location: Caltech
(34.1382°N, 118.1253°W)
Time: 14:55:48
(UTC-07:00)
Language:

GPS 2-04 Rocket1 - Orbit

View from above orbital plane
View from above orbital plane
View from above satellite
View from above satellite

Ground track
Ground track

The orbit data is extracted from the following two-line orbital elements,

1 20303U 89085B   15188.18392072  .00010007  00000-0  40708-3 0  9993
2 20303 035.6305 142.6211 0121674 030.4695 086.7974 15.17228862392240
Epoch (UTC): 07 July 2015 04:24:50
Eccentricity: 0.0121674
inclination: 35.6305°
perigee height: 430 km
apogee height: 598 km
right ascension of ascending node: 142.6211°
argument of perigee: 30.4695°
revolutions per day: 15.17228862
mean anomaly at epoch: 86.7974°
orbit number at epoch: 39224

The dashed part of the orbit path shows where the satellite is in the earth's shadow,  

DLR